[[{"header":{"parameterUnit":"m.s-1","parameterCategory":1,"la1":30.2991,"la2":30.254,"lo1":-89.0895,"lo2":-89.0444,"dy":0.0017,"dx":0.0017,"nx":28,"ny":28,"refTime":"2023-08-14T09:00:00:Z","depth":0,"parameterNumber":2,"parameterNumberName":"U-component_of_WINDS"},"data":[0,0,0,0,0,0,0,0,0,0,0,0,0,0,0,0,0,0,0,0,0,0,0,0,0,0,0,0,0,0,0,0,0,0,0,0,0,0,0,0,0,0,0,0,0,0,0,0,0,0,0,0,0,0,0,0,0,0,1.4924,1.4924,0,1.4953,1.4953,1.4953,1.491,1.4908,1.4907,1.4905,1.4934,1.4936,1.4938,0,0,0,0,0,0,0,0,0,0,0,0,0,1.483,1.4832,1.4924,1.4924,1.4925,1.4952,1.4953,1.4953,1.491,1.4908,1.4906,1.4905,1.4933,1.4936,1.4939,0,0,0,0,0,0,0,0,0,0,0,0,0,1.4866,1.4833,1.4924,1.4907,1.4905,1.4952,1.4953,1.4953,1.4911,1.4908,1.4906,1.4904,1.4933,1.4936,1.4939,1.5004,0,0,1.4949,1.495,0,0,0,0,0,0,0,0,1.4864,1.487,1.4909,1.4908,1.4907,1.4925,1.493,1.497,1.4911,1.4909,1.4905,1.4903,1.4933,1.4936,1.4946,1.5006,1.5007,1.4949,1.4951,1.4953,1.4953,0,0,0,0,0,0,0,1.4862,1.4868,1.4935,1.4909,1.4908,1.4897,1.4899,1.4938,1.4933,1.4909,1.4906,1.491,1.4932,1.4943,1.4947,1.5007,1.4949,1.4952,1.4954,1.4955,1.5119,1.5121,0,0,0,0,0,0,1.4862,1.4866,1.4934,1.4936,1.4879,1.49,1.4903,1.4922,1.4933,1.4932,1.4911,1.4907,1.4939,1.4943,1.4948,1.5023,1.4953,1.4956,1.4957,1.5117,1.5119,1.5122,0,0,0,0,0,0,1.486,1.4868,1.4933,1.49,1.4908,1.4904,1.4925,1.4923,1.4935,1.4935,1.4934,1.4924,1.4937,1.4943,1.499,1.5023,1.4957,1.496,1.5114,1.5117,1.5121,1.5176,0,0,0,0,0,0,1.4857,1.4868,1.4893,1.4901,1.491,1.4976,1.4927,1.4926,1.494,1.4935,1.4946,1.4946,1.4936,1.4985,1.4993,1.5027,1.4963,1.5111,1.5115,1.512,1.5171,1.5181,1.5189,0,0,0,0,0,1.4854,1.4908,1.4895,1.4903,1.4941,1.4978,1.4983,1.497,1.4943,1.4968,1.4968,1.4945,1.5019,1.4991,1.4999,1.5034,1.5108,1.5114,1.5119,1.5167,1.5179,1.5189,0,0,0,0,0,0,1.4904,1.4909,1.4894,1.4952,1.4965,1.4971,1.5002,1.4984,1.5005,1.4999,1.4983,1.4985,1.5035,1.504,1.5008,1.5097,1.5059,1.5066,1.5092,1.5104,1.5113,1.511,1.4965,0,0,0,0,0,1.4921,1.4951,1.4954,1.5004,1.5012,1.5006,1.5021,1.501,1.5023,1.5028,1.5031,1.5044,1.507,1.5087,1.5111,1.5171,1.5172,1.5199,1.5209,1.5216,1.5222,1.5253,1.5264,1.514,1.514,1.514,0,0,1.4958,1.4965,1.4984,1.5015,1.5023,1.5053,1.5011,1.5045,1.5067,1.5033,1.5077,1.508,1.5093,1.5147,1.517,1.5152,1.5257,1.5223,1.5229,1.5231,1.5259,1.5271,1.5282,1.5143,1.5143,1.5142,0,0,1.5041,1.5049,1.5091,1.5101,1.5114,1.511,1.512,1.5128,1.5128,1.5172,1.5147,1.5173,1.5218,1.5228,1.5238,1.5323,1.5302,1.5331,1.5378,1.5408,1.5418,1.5427,1.5455,1.5466,1.5337,1.5337,1.5338,0,1.5085,1.513,1.5116,1.5151,1.5164,1.5135,1.5177,1.5187,1.5207,1.5217,1.5195,1.525,1.5257,1.5311,1.5332,1.5342,1.5352,1.5329,1.5418,1.5426,1.5434,1.5461,1.5472,1.5341,1.534,1.534,1.534,0,1.5182,1.5214,1.5246,1.5266,1.5283,1.5322,1.5313,1.5331,1.5319,1.5316,1.536,1.5367,1.5391,1.5404,1.5392,1.5456,1.5444,1.5421,1.5382,1.5449,1.5474,1.5485,1.5345,1.5344,1.5343,1.5342,0,0,1.5297,1.5308,1.532,1.5328,1.534,1.5363,1.54,1.5423,1.5438,1.5453,1.5483,1.5521,1.5499,1.5511,1.55,1.5527,1.5591,1.55,1.55,1.5515,1.566,1.5676,1.5689,1.5577,1.5579,1.5581,1.5658,0,1.5378,1.5441,1.5429,1.549,1.5518,1.549,1.5522,1.5532,1.553,1.5553,1.5551,1.5577,1.5547,1.5554,1.5579,1.5578,1.5619,1.5572,1.5604,1.5605,1.56,1.5702,1.572,1.5792,1.5668,1.567,1.5671,0,1.5481,1.5498,1.5563,1.5568,1.558,1.5608,1.5627,1.565,1.5661,1.5657,1.567,1.5654,1.5689,1.5651,1.5698,1.5667,1.5679,1.568,1.5682,1.5684,1.5641,1.5705,1.5815,1.5826,1.5686,1.5685,1.5684,0,1.5556,1.5596,1.5639,1.5647,1.5655,1.5676,1.568,1.5689,1.5703,1.5719,1.5728,1.5749,1.576,1.5776,1.5765,1.5738,1.5814,1.5775,1.5811,1.5811,1.5828,1.5827,1.594,1.5838,1.5837,1.5837,1.5837,0,1.5647,1.5687,1.5673,1.5699,1.5743,1.5728,1.5771,1.5772,1.5779,1.5805,1.5782,1.5806,1.5791,1.5814,1.5806,1.5845,1.5851,1.5849,1.5846,1.585,1.585,1.5857,1.5851,1.584,1.5839,1.5839,1.5838,0,1.5738,1.5731,1.5775,1.5779,1.5781,1.5813,1.5815,1.5839,1.5836,1.5868,1.5875,1.5869,1.5894,1.5885,1.5912,1.5907,1.5957,1.5948,1.5953,1.5951,1.5987,1.5983,1.6108,1.6123,1.6012,1.6013,1.6014,0,1.5796,1.5826,1.5832,1.5848,1.5853,1.5879,1.5892,1.5878,1.5894,1.5907,1.5929,1.5953,1.597,1.6012,1.601,1.603,1.6021,1.6063,1.6024,1.6027,1.602,1.6018,1.602,1.6071,1.6072,1.6073,1.6074,0,1.5899,1.5893,1.5914,1.5934,1.5951,1.5965,1.5978,1.5992,1.5978,1.5996,1.6022,1.6036,1.6063,1.6086,1.6104,1.6107,1.6088,1.6087,1.6096,1.61,1.6101,1.6099,1.5973,1.6084,1.6083,1.6082,1.6081,1.6081,1.5974,1.5999,1.6007,1.603,1.6038,1.605,1.6072,1.6071,1.6092,1.6113,1.6103,1.6132,1.614,1.6162,1.6169,1.6191,1.6174,1.6188,1.6191,1.6194,1.6198,1.6098,1.6194,1.6194,1.6194,1.6193,1.6193,0,1.6075,1.6078,1.61,1.6118,1.6136,1.6116,1.6129,1.6145,1.6171,1.618,1.6198,1.6226,1.6248,1.6247,1.6267,1.6285,1.6276,1.629,1.6288,1.6289,1.6213,1.6202,1.6297,1.6297,1.6297,1.6297,1.6297,1.6297,1.6129,1.6169,1.6164,1.6207,1.621,1.6238,1.6247,1.6257,1.6264,1.6297,1.6315,1.6314,1.6319,1.6339,1.6357,1.6356,1.6364,1.6381,1.6377,1.6305,1.6295,1.6285,1.6275,1.6383,1.6384,1.6451,1.6452,1.6453]},{"header":{"parameterUnit":"m.s-1","parameterCategory":1,"la1":30.2991,"la2":30.254,"lo1":-89.0895,"lo2":-89.0444,"dy":0.0017,"dx":0.0017,"nx":28,"ny":28,"refTime":"2023-08-14T09:00:00:Z","depth":0,"parameterNumber":3,"parameterNumberName":"V-component_of_WINDS"},"data":[0,0,0,0,0,0,0,0,0,0,0,0,0,0,0,0,0,0,0,0,0,0,0,0,0,0,0,0,0,0,0,0,0,0,0,0,0,0,0,0,0,0,0,0,0,0,0,0,0,0,0,0,0,0,0,0,0,0,5.0017,5.0019,0,5.0155,5.0156,5.0158,5.0123,5.012,5.0117,5.0115,5.0246,5.0252,5.0258,0,0,0,0,0,0,0,0,0,0,0,0,0,4.9714,4.972,5.0017,5.0019,5.0021,5.0155,5.0156,5.0158,5.0123,5.012,5.0117,5.0114,5.0244,5.0251,5.0258,0,0,0,0,0,0,0,0,0,0,0,0,0,4.9848,4.9722,5.0017,5.0019,5.0021,5.0154,5.0156,5.0159,5.0124,5.012,5.0116,5.0112,5.0242,5.0251,5.0259,5.0395,0,0,5.0287,5.0291,0,0,0,0,0,0,0,0,4.984,4.9859,5.0017,5.0019,5.0022,5.0118,5.0098,5.0238,5.0125,5.0084,5.0115,5.011,5.0206,5.0218,5.0252,5.0402,5.0407,5.0288,5.0293,5.0297,5.03,0,0,0,0,0,0,0,4.9831,4.9853,5.0071,5.002,5.0022,5.001,5.0025,5.0124,5.0166,5.0088,5.0086,5.0103,5.0206,5.0243,5.0255,5.0409,5.0287,5.0295,5.0301,5.0304,5.0675,5.0679,0,0,0,0,0,0,4.9821,4.9845,5.0067,5.0075,4.9919,5.0019,5.0035,5.0091,5.0165,5.0172,5.0106,5.0101,5.023,5.0244,5.0259,5.0422,5.0297,5.0305,5.0311,5.0671,5.0676,5.0681,0,0,0,0,0,0,4.9815,4.9842,5.0061,4.996,4.9987,5.0029,5.0091,5.0095,5.0133,5.0179,5.0185,5.0137,5.0227,5.0247,5.0362,5.0426,5.0309,5.0318,5.0666,5.0672,5.0679,5.075,0,0,0,0,0,0,4.9806,4.9839,4.9894,4.9962,4.9993,5.0165,5.0095,5.0101,5.0149,5.0144,5.0209,5.0216,5.0226,5.0349,5.0371,5.0437,5.0325,5.066,5.0669,5.0676,5.0742,5.0759,5.0773,0,0,0,0,0,4.9796,4.9907,4.9897,4.9924,5.0062,5.0169,5.0186,5.0198,5.0155,5.0208,5.0238,5.0214,5.0416,5.0361,5.0386,5.0455,5.0656,5.0666,5.0676,5.0736,5.0756,5.0772,0,0,0,0,0,0,4.9842,4.9916,4.9905,5.0042,5.01,5.0163,5.0231,5.0218,5.0287,5.0278,5.0286,5.0301,5.0419,5.0449,5.0386,5.059,5.0529,5.0545,5.0566,5.0586,5.06,5.059,5.0332,0,0,0,0,0,4.9869,4.9953,5.0011,5.0126,5.0156,5.0189,5.0235,5.024,5.0298,5.0321,5.0359,5.0414,5.049,5.0539,5.0612,5.0747,5.0759,5.0806,5.0821,5.0834,5.0846,5.0918,5.0939,5.0714,5.0714,5.0714,0,0,4.9924,4.9974,5.0026,5.0137,5.0182,5.0265,5.0209,5.03,5.0361,5.0334,5.0446,5.0476,5.0537,5.0663,5.072,5.0691,5.0912,5.0846,5.0856,5.0862,5.0931,5.0952,5.0971,5.0721,5.0719,5.0718,0,0,5.0067,5.0115,5.0215,5.0262,5.0333,5.0354,5.0378,5.0443,5.0463,5.0576,5.0557,5.0628,5.0759,5.0804,5.0843,5.1003,5.0983,5.1026,5.1105,5.1175,5.1192,5.1208,5.1264,5.1284,5.1039,5.1039,5.1039,0,5.0125,5.0254,5.0268,5.0361,5.0409,5.0392,5.0492,5.0536,5.0624,5.0656,5.0624,5.0787,5.0828,5.0963,5.1002,5.1035,5.1061,5.1018,5.1189,5.1205,5.122,5.1273,5.1294,5.1044,5.1043,5.1043,5.1042,0,5.0321,5.0411,5.0483,5.0573,5.0629,5.0725,5.075,5.0805,5.0804,5.0827,5.0942,5.099,5.1071,5.1104,5.1102,5.1239,5.1218,5.1188,5.1127,5.1246,5.1296,5.1316,5.1051,5.1049,5.1048,5.1046,0,0,5.0496,5.0594,5.062,5.066,5.0737,5.0804,5.0898,5.0981,5.1027,5.1088,5.1166,5.1277,5.1249,5.1294,5.1298,5.1359,5.1481,5.1321,5.1322,5.1348,5.1632,5.1654,5.1678,5.1469,5.1473,5.1476,5.1626,0,5.0645,5.0815,5.083,5.0981,5.1062,5.1047,5.1128,5.1182,5.1207,5.1276,5.1301,5.138,5.1338,5.1365,5.1426,5.1454,5.1538,5.1443,5.1538,5.1541,5.1522,5.1704,5.1728,5.1867,5.1646,5.1649,5.1652,0,5.0841,5.0912,5.1072,5.1137,5.1172,5.1245,5.1322,5.139,5.1449,5.1462,5.1514,5.1509,5.1602,5.1539,5.1666,5.1601,5.1641,5.166,5.1666,5.1674,5.1603,5.1715,5.1912,5.1932,5.1683,5.168,5.1678,0,5.0951,5.1086,5.12,5.1235,5.1313,5.1365,5.14,5.1456,5.1504,5.157,5.1601,5.1676,5.1716,5.1773,5.1787,5.174,5.1913,5.1852,5.1924,5.1924,5.196,5.1958,5.2165,5.1988,5.1988,5.1987,5.1987,0,5.1115,5.1213,5.125,5.132,5.1428,5.1443,5.1549,5.158,5.163,5.1703,5.1693,5.1761,5.1776,5.1846,5.1857,5.196,5.1978,5.1989,5.1991,5.199,5.1988,5.2015,5.2005,5.1993,5.1992,5.1991,5.199,0,5.1256,5.1285,5.1407,5.1473,5.1491,5.1568,5.1622,5.1687,5.1711,5.1803,5.1825,5.186,5.1942,5.1963,5.2059,5.2066,5.2187,5.218,5.2168,5.2168,5.2239,5.2231,5.2469,5.25,5.2304,5.2306,5.2308,0,5.1358,5.1434,5.1508,5.1558,5.1596,5.1675,5.1726,5.1743,5.1795,5.1868,5.1924,5.2005,5.2071,5.2202,5.2234,5.2307,5.2301,5.2379,5.2311,5.2308,5.23,5.2295,5.2302,5.2391,5.2393,5.2395,5.2396,0,5.1535,5.1547,5.1621,5.1702,5.1763,5.1826,5.1886,5.1926,5.1951,5.2009,5.2095,5.2146,5.2246,5.2325,5.2399,5.2431,5.2417,5.2418,5.2438,5.2437,5.2427,5.2432,5.2202,5.2412,5.241,5.2409,5.2408,5.2408,5.1659,5.1725,5.1789,5.1872,5.1919,5.1976,5.204,5.2073,5.2146,5.223,5.2235,5.2327,5.2383,5.2481,5.2518,5.2587,5.2563,5.2593,5.26,5.2607,5.2613,5.2417,5.2601,5.26,5.26,5.26,5.2599,0,5.1835,5.1875,5.1952,5.2038,5.2103,5.2088,5.2154,5.2208,5.229,5.2345,5.2411,5.2508,5.2585,5.2624,5.27,5.2749,5.2744,5.2768,5.2763,5.2771,5.2631,5.2605,5.277,5.277,5.277,5.277,5.277,5.277,5.1934,5.2046,5.2064,5.2197,5.2236,5.2329,5.2367,5.2418,5.2462,5.2572,5.2638,5.2664,5.2712,5.2791,5.286,5.287,5.2897,5.2924,5.293,5.2798,5.2781,5.2764,5.274,5.293,5.2931,5.3064,5.3065,5.3066]}]]